Погода в Тотоникапане

Гватемала     14°54′42″N   91°21′35″W
темп.,
°C
ветер,
м/с
пор.,
м/с
влажн.,
%
обл.,
%
осадки,
мм/ч
давл.,
гПа
погр.,
м
16 апреля, пт
пт1600:00+13ююв118715 1.4 101710
03:00+13зюз11905 0.1 101513
06:00+12юз119099 0.1 101513
09:00+20юв115748 0.0 1015967
12:00+25всв123526 0.1 10102540
15:00+21ююв545976 1.6 10101117
18:00+17зюз1180100 4.6 101270
21:00+15юз1287100 4.8 101579
17 апреля, сб
сб1700:00+15юз1181100 5.3 101529
03:00+15юз1183100 0.3 101334
06:00+14ююз1183100 0.3 101530
09:00+19ююв1260100 0.0 1015923
12:00+22ю1252100 1.1 10131476
15:00+21ююв2254100 2.2 10101229
18:00+16с238294 5.7 1014164
21:00+14юз119128 0.3 101624
18 апреля, вс
вс1800:00+13ююз22895 0.4 101620
03:00+13юз11873 0.0 101511
06:00+12зюз11875 0.0 101613
09:00+20св11595 0.0 1015954
12:00+23всв334594 0.3 10122118
15:00+19вюв346432 2.4 1012841
18:00+15ссз128376 7.6 101464
21:00+13з12926 1.8 101731
19 апреля, пн
пн1900:00+13зюз119051 2.0 101710
03:00+12з119285 0.0 101610
06:00+12юз119281 0.0 101710
09:00+17ссв117199 0.1 1018606
12:00+21всв325159 0.9 10141636
15:00+21вюв335375 2.0 10111608
18:00+16в237742 3.9 101454
21:00+14вюв118960 1.4 101712
20 апреля, вт
вт2000:00+13юв019545 1.9 101711
03:00+12ююз119764 0.0 101613
06:00+12ю119675 0.1 101725
09:00+19ссв1169100 0.1 1017783
12:00+22всв224988 1.3 10141781
15:00+17в237499 3.3 1013179
18:00+16вюв128254 10.3 101457
21:00+14с2392100 4.4 1018171